Time,TemperatureF,DewpointF,PressureIn,WindDirection,WindDirectionDegrees,WindSpeedMPH,WindSpeedGustMPH,Humidity,HourlyPrecipIn,Conditions,Clouds,dailyrainin,SoftwareType,DateUTC
2013-01-14 00:03:00,44.0,39.8,29.88,NNW,337,1.0,1.0,85,0.00,,,0.00,Wunderground v.1.15,2013-01-14 05:03:00,
2013-01-14 00:05:00,44.1,39.9,29.88,NNW,337,1.0,1.0,85,0.00,,,0.00,Wunderground v.1.15,2013-01-14 05:05:00,
2013-01-14 00:07:00,44.1,39.9,29.88,NNW,337,1.0,1.0,85,0.00,,,0.00,Wunderground v.1.15,2013-01-14 05:07:00,
2013-01-14 00:11:00,44.0,39.8,29.88,NNW,343,0.0,2.0,85,0.00,,,0.00,Wunderground v.1.15,2013-01-14 05:11:00,
2013-01-14 00:17:00,43.9,40.0,29.88,NNW,343,0.0,2.0,86,0.00,,,0.00,Wunderground v.1.15,2013-01-14 05:17:00,
2013-01-14 00:23:00,43.8,39.9,29.89,NNW,343,0.0,2.0,86,0.00,,,0.00,Wunderground v.1.15,2013-01-14 05:23:00,
2013-01-14 00:29:00,43.6,39.7,29.88,NNW,343,0.0,1.0,86,0.00,,,0.00,Wunderground v.1.15,2013-01-14 05:29:00,
2013-01-14 00:35:00,43.5,39.6,29.88,NNW,344,0.0,1.0,86,0.00,,,0.00,Wunderground v.1.15,2013-01-14 05:35:00,
2013-01-14 00:41:00,43.4,39.5,29.87,NNW,348,1.0,2.0,86,0.00,,,0.00,Wunderground v.1.15,2013-01-14 05:41:00,
2013-01-14 00:47:00,43.2,39.3,29.87,North,350,0.0,2.0,86,0.00,,,0.00,Wunderground v.1.15,2013-01-14 05:47:00,
2013-01-14 00:53:00,43.1,39.5,29.87,North,350,0.0,0.0,87,0.00,,,0.00,Wunderground v.1.15,2013-01-14 05:53:00,
2013-01-14 00:59:00,43.0,39.1,29.86,North,350,0.0,2.0,86,0.00,,,0.00,Wunderground v.1.15,2013-01-14 05:59:00,
2013-01-14 01:05:00,42.9,39.0,29.85,North,350,0.0,2.0,86,0.00,,,0.00,Wunderground v.1.15,2013-01-14 06:05:00,
2013-01-14 01:11:00,42.9,39.0,29.85,North,350,0.0,1.0,86,0.00,,,0.00,Wunderground v.1.15,2013-01-14 06:11:00,
2013-01-14 01:17:00,43.0,39.1,29.84,North,5,0.0,2.0,86,0.00,,,0.00,Wunderground v.1.15,2013-01-14 06:17:00,
2013-01-14 01:23:00,43.0,39.1,29.82,NNE,20,1.0,1.0,86,0.00,,,0.00,Wunderground v.1.15,2013-01-14 06:23:00,
2013-01-14 01:29:00,43.0,39.1,29.83,East,82,1.0,1.0,86,0.00,,,0.00,Wunderground v.1.15,2013-01-14 06:29:00,
2013-01-14 01:35:00,43.1,39.2,29.83,NE,53,2.0,3.0,86,0.00,,,0.00,Wunderground v.1.15,2013-01-14 06:35:00,
2013-01-14 01:41:00,43.1,39.2,29.84,NE,44,2.0,4.0,86,0.00,,,0.00,Wunderground v.1.15,2013-01-14 06:41:00,
2013-01-14 01:47:00,43.1,39.2,29.84,ENE,59,3.0,4.0,86,0.00,,,0.00,Wunderground v.1.15,2013-01-14 06:47:00,
2013-01-14 01:53:00,43.0,39.1,29.83,NE,44,2.0,3.0,86,0.00,,,0.00,Wunderground v.1.15,2013-01-14 06:53:00,
2013-01-14 01:59:00,42.8,38.9,29.84,NE,36,2.0,2.0,86,0.00,,,0.00,Wunderground v.1.15,2013-01-14 06:59:00,
2013-01-14 02:05:00,42.7,38.8,29.85,NE,41,1.0,2.0,86,0.00,,,0.00,Wunderground v.1.15,2013-01-14 07:05:00,
2013-01-14 02:11:00,42.7,38.8,29.85,NE,41,1.0,2.0,86,0.00,,,0.00,Wunderground v.1.15,2013-01-14 07:11:00,
2013-01-14 02:17:00,42.8,38.6,29.86,NE,41,0.0,2.0,85,0.00,,,0.00,Wunderground v.1.15,2013-01-14 07:17:00,
2013-01-14 02:23:00,42.8,38.6,29.85,NE,41,0.0,0.0,85,0.00,,,0.00,Wunderground v.1.15,2013-01-14 07:23:00,
2013-01-14 02:29:00,42.7,38.8,29.85,NE,41,0.0,0.0,86,0.00,,,0.00,Wunderground v.1.15,2013-01-14 07:29:00,
2013-01-14 02:35:00,42.7,38.8,29.85,NE,41,0.0,3.0,86,0.00,,,0.00,Wunderground v.1.15,2013-01-14 07:35:00,
2013-01-14 02:41:00,42.6,38.7,29.86,East,101,2.0,2.0,86,0.00,,,0.00,Wunderground v.1.15,2013-01-14 07:41:00,
2013-01-14 02:47:00,42.6,38.7,29.86,ESE,113,2.0,3.0,86,0.00,,,0.00,Wunderground v.1.15,2013-01-14 07:47:00,
2013-01-14 02:53:00,42.5,38.6,29.85,ESE,112,1.0,2.0,86,0.00,,,0.00,Wunderground v.1.15,2013-01-14 07:53:00,
2013-01-14 02:59:00,42.5,38.3,29.85,East,91,1.0,2.0,85,0.00,,,0.00,Wunderground v.1.15,2013-01-14 07:59:00,
2013-01-14 03:05:00,42.7,38.5,29.85,East,86,1.0,2.0,85,0.00,,,0.00,Wunderground v.1.15,2013-01-14 08:05:00,
2013-01-14 03:11:00,42.7,38.5,29.83,East,84,0.0,1.0,85,0.00,,,0.00,Wunderground v.1.15,2013-01-14 08:11:00,
2013-01-14 03:17:00,42.9,38.7,29.84,ENE,74,1.0,1.0,85,0.00,,,0.00,Wunderground v.1.15,2013-01-14 08:17:00,
2013-01-14 03:23:00,43.2,39.0,29.86,ENE,74,0.0,1.0,85,0.00,,,0.00,Wunderground v.1.15,2013-01-14 08:23:00,
2013-01-14 03:29:00,43.3,39.1,29.85,NE,49,1.0,3.0,85,0.00,,,0.00,Wunderground v.1.15,2013-01-14 08:29:00,
2013-01-14 03:35:00,43.2,39.0,29.85,NE,43,2.0,5.0,85,0.00,,,0.00,Wunderground v.1.15,2013-01-14 08:35:00,
2013-01-14 03:41:00,43.2,39.0,29.86,NE,44,2.0,3.0,85,0.00,,,0.00,Wunderground v.1.15,2013-01-14 08:41:00,
2013-01-14 03:47:00,43.1,38.9,29.86,NE,49,2.0,5.0,85,0.00,,,0.00,Wunderground v.1.15,2013-01-14 08:47:00,
2013-01-14 03:53:00,42.9,38.7,29.85,ENE,57,3.0,3.0,85,0.00,,,0.00,Wunderground v.1.15,2013-01-14 08:53:00,
2013-01-14 03:59:00,42.8,38.6,29.85,ENE,57,2.0,2.0,85,0.00,,,0.00,Wunderground v.1.15,2013-01-14 08:59:00,
2013-01-14 04:05:00,42.8,38.6,29.86,ENE,57,1.0,2.0,85,0.00,,,0.00,Wunderground v.1.15,2013-01-14 09:05:00,
2013-01-14 04:11:00,43.1,38.6,29.86,NE,53,0.0,1.0,84,0.00,,,0.00,Wunderground v.1.15,2013-01-14 09:11:00,
2013-01-14 04:17:00,43.3,38.8,29.87,NNW,348,1.0,2.0,84,0.00,,,0.00,Wunderground v.1.15,2013-01-14 09:17:00,
2013-01-14 04:23:00,43.3,39.1,29.88,NNE,19,1.0,3.0,85,0.00,,,0.00,Wunderground v.1.15,2013-01-14 09:23:00,
2013-01-14 04:29:00,43.3,39.1,29.88,NNE,19,1.0,1.0,85,0.00,,,0.00,Wunderground v.1.15,2013-01-14 09:29:00,
2013-01-14 04:35:00,43.3,39.1,29.91,NW,306,1.0,5.0,85,0.00,,,0.00,Wunderground v.1.15,2013-01-14 09:35:00,
2013-01-14 04:41:00,43.6,39.1,29.92,West,261,6.0,12.0,84,0.00,,,0.00,Wunderground v.1.15,2013-01-14 09:41:00,
2013-01-14 04:47:00,44.7,39.9,29.93,NW,317,11.0,14.0,83,0.00,,,0.00,Wunderground v.1.15,2013-01-14 09:47:00,
2013-01-14 04:53:00,44.9,40.4,29.93,WNW,298,12.0,13.0,84,0.00,,,0.00,Wunderground v.1.15,2013-01-14 09:53:00,
2013-01-14 04:59:00,44.8,40.3,29.94,NW,306,12.0,15.0,84,0.00,,,0.00,Wunderground v.1.15,2013-01-14 09:59:00,
2013-01-14 05:05:00,44.5,40.0,29.95,WNW,302,13.0,16.0,84,0.00,,,0.00,Wunderground v.1.15,2013-01-14 10:05:00,
2013-01-14 05:11:00,44.3,40.1,29.96,NW,309,12.0,13.0,85,0.00,,,0.00,Wunderground v.1.15,2013-01-14 10:11:00,
2013-01-14 05:17:00,44.1,39.9,29.97,West,277,10.0,16.0,85,0.00,,,0.00,Wunderground v.1.15,2013-01-14 10:17:00,
2013-01-14 05:23:00,43.7,39.8,29.97,WNW,300,11.0,12.0,86,0.00,,,0.00,Wunderground v.1.15,2013-01-14 10:23:00,
2013-01-14 05:29:00,43.4,39.5,29.97,NW,306,11.0,11.0,86,0.00,,,0.00,Wunderground v.1.15,2013-01-14 10:29:00,
2013-01-14 05:35:00,43.0,39.4,29.98,WNW,294,10.0,14.0,87,0.00,,,0.00,Wunderground v.1.15,2013-01-14 10:35:00,
2013-01-14 05:41:00,42.5,38.9,29.99,WSW,256,11.0,15.0,87,0.00,,,0.01,Wunderground v.1.15,2013-01-14 10:41:00,
2013-01-14 05:47:00,42.2,38.6,29.99,WNW,300,11.0,19.0,87,0.00,,,0.01,Wunderground v.1.15,2013-01-14 10:47:00,
2013-01-14 05:53:00,41.9,38.0,30.00,WNW,291,11.0,13.0,86,0.00,,,0.01,Wunderground v.1.15,2013-01-14 10:53:00,
2013-01-14 05:59:00,41.6,37.7,30.00,West,276,11.0,12.0,86,0.00,,,0.01,Wunderground v.1.15,2013-01-14 10:59:00,
2013-01-14 06:05:00,41.5,37.6,30.00,West,277,10.0,15.0,86,0.00,,,0.01,Wunderground v.1.15,2013-01-14 11:05:00,
2013-01-14 06:11:00,41.3,37.4,30.01,West,273,9.0,12.0,86,0.00,,,0.01,Wunderground v.1.15,2013-01-14 11:11:00,
2013-01-14 06:17:00,41.2,37.3,30.03,WNW,290,9.0,12.0,86,0.00,,,0.01,Wunderground v.1.15,2013-01-14 11:17:00,
2013-01-14 06:23:00,41.1,37.2,30.02,NNW,329,10.0,13.0,86,0.00,,,0.01,Wunderground v.1.15,2013-01-14 11:23:00,
2013-01-14 06:29:00,41.0,37.1,30.02,West,281,9.0,9.0,86,0.00,,,0.01,Wunderground v.1.15,2013-01-14 11:29:00,
2013-01-14 06:35:00,40.8,37.2,30.02,WNW,288,11.0,12.0,87,0.00,,,0.01,Wunderground v.1.15,2013-01-14 11:35:00,
2013-01-14 06:41:00,40.6,37.0,30.03,WNW,292,11.0,11.0,87,0.00,,,0.01,Wunderground v.1.15,2013-01-14 11:41:00,
2013-01-14 06:47:00,40.6,37.0,30.04,WNW,298,10.0,13.0,87,0.00,,,0.01,Wunderground v.1.15,2013-01-14 11:47:00,
2013-01-14 06:53:00,40.5,36.9,30.05,NNW,340,10.0,13.0,87,0.00,,,0.01,Wunderground v.1.15,2013-01-14 11:53:00,
2013-01-14 06:59:00,40.3,36.7,30.06,WNW,286,10.0,10.0,87,0.00,,,0.01,Wunderground v.1.15,2013-01-14 11:59:00,
2013-01-14 07:05:00,40.2,36.6,30.06,WNW,288,9.0,15.0,87,0.00,,,0.01,Wunderground v.1.15,2013-01-14 12:05:00,
2013-01-14 07:11:00,40.2,36.6,30.07,WNW,303,9.0,9.0,87,0.00,,,0.01,Wunderground v.1.15,2013-01-14 12:11:00,
2013-01-14 07:17:00,40.1,36.5,30.07,WNW,295,8.0,9.0,87,0.00,,,0.01,Wunderground v.1.15,2013-01-14 12:17:00,
2013-01-14 07:23:00,40.1,36.8,30.07,WNW,302,9.0,11.0,88,0.00,,,0.01,Wunderground v.1.15,2013-01-14 12:23:00,
2013-01-14 07:29:00,40.1,36.8,30.07,WNW,286,9.0,9.0,88,0.00,,,0.01,Wunderground v.1.15,2013-01-14 12:29:00,
2013-01-14 07:35:00,40.1,36.8,30.08,NW,309,8.0,9.0,88,0.00,,,0.01,Wunderground v.1.15,2013-01-14 12:35:00,
2013-01-14 07:41:00,40.1,36.8,30.09,WNW,282,8.0,14.0,88,0.00,,,0.01,Wunderground v.1.15,2013-01-14 12:41:00,
2013-01-14 07:47:00,40.1,36.8,30.09,WNW,284,8.0,14.0,88,0.00,,,0.01,Wunderground v.1.15,2013-01-14 12:47:00,
2013-01-14 07:53:00,40.0,36.7,30.10,NNW,333,8.0,11.0,88,0.00,,,0.01,Wunderground v.1.15,2013-01-14 12:53:00,
2013-01-14 07:59:00,40.0,36.7,30.10,WNW,289,7.0,12.0,88,0.00,,,0.01,Wunderground v.1.15,2013-01-14 12:59:00,
2013-01-14 08:05:00,39.9,36.9,30.10,NNW,340,8.0,12.0,89,0.00,,,0.01,Wunderground v.1.15,2013-01-14 13:05:00,
2013-01-14 08:11:00,39.9,36.9,30.11,NNW,331,7.0,8.0,89,0.00,,,0.01,Wunderground v.1.15,2013-01-14 13:11:00,
2013-01-14 08:17:00,39.9,36.9,30.11,NW,319,7.0,8.0,89,0.00,,,0.01,Wunderground v.1.15,2013-01-14 13:17:00,
2013-01-14 08:23:00,39.9,36.9,30.11,NW,323,9.0,20.0,89,0.00,,,0.01,Wunderground v.1.15,2013-01-14 13:23:00,
2013-01-14 08:29:00,40.0,37.0,30.12,NNW,332,12.0,12.0,89,0.00,,,0.01,Wunderground v.1.15,2013-01-14 13:29:00,
2013-01-14 08:35:00,40.0,37.0,30.13,NNW,327,11.0,12.0,89,0.00,,,0.01,Wunderground v.1.15,2013-01-14 13:35:00,
2013-01-14 08:41:00,39.9,36.6,30.14,NW,316,9.0,10.0,88,0.00,,,0.01,Wunderground v.1.15,2013-01-14 13:41:00,
2013-01-14 08:47:00,39.8,36.5,30.14,NNW,332,7.0,10.0,88,0.00,,,0.01,Wunderground v.1.15,2013-01-14 13:47:00,
2013-01-14 08:53:00,39.8,36.5,30.15,NW,304,8.0,9.0,88,0.00,,,0.01,Wunderground v.1.15,2013-01-14 13:53:00,
2013-01-14 08:59:00,39.7,36.4,30.16,NW,306,7.0,7.0,88,0.00,,,0.01,Wunderground v.1.15,2013-01-14 13:59:00,
2013-01-14 09:05:00,39.7,36.1,30.16,WNW,302,7.0,16.0,87,0.00,,,0.01,Wunderground v.1.15,2013-01-14 14:05:00,
2013-01-14 09:11:00,39.7,36.1,30.16,NW,304,9.0,11.0,87,0.00,,,0.01,Wunderground v.1.15,2013-01-14 14:11:00,
2013-01-14 09:17:00,39.7,36.1,30.16,WNW,284,10.0,11.0,87,0.00,,,0.01,Wunderground v.1.15,2013-01-14 14:17:00,
2013-01-14 09:23:00,39.7,36.1,30.16,WNW,286,9.0,10.0,87,0.00,,,0.01,Wunderground v.1.15,2013-01-14 14:23:00,
2013-01-14 09:29:00,39.7,36.1,30.17,NW,321,9.0,10.0,87,0.00,,,0.01,Wunderground v.1.15,2013-01-14 14:29:00,
2013-01-14 09:35:00,39.7,35.9,30.17,NNW,327,8.0,16.0,86,0.00,,,0.01,Wunderground v.1.15,2013-01-14 14:35:00,
2013-01-14 09:41:00,39.6,35.5,30.17,WNW,302,11.0,21.0,85,0.00,,,0.01,Wunderground v.1.15,2013-01-14 14:41:00,
2013-01-14 09:47:00,39.5,35.4,30.17,NW,315,12.0,21.0,85,0.00,,,0.01,Wunderground v.1.15,2013-01-14 14:47:00,
2013-01-14 09:53:00,39.5,35.1,30.18,NNW,341,11.0,13.0,84,0.00,,,0.01,Wunderground v.1.15,2013-01-14 14:53:00,
2013-01-14 09:59:00,39.6,35.2,30.18,NNW,340,9.0,9.0,84,0.00,,,0.01,Wunderground v.1.15,2013-01-14 14:59:00,
2013-01-14 10:05:00,39.7,35.0,30.19,NNW,343,9.0,9.0,83,0.00,,,0.01,Wunderground v.1.15,2013-01-14 15:05:00,
2013-01-14 10:11:00,39.8,35.1,30.19,WNW,292,7.0,11.0,83,0.00,,,0.01,Wunderground v.1.15,2013-01-14 15:11:00,
2013-01-14 10:17:00,39.9,34.5,30.20,West,281,9.0,11.0,81,0.00,,,0.01,Wunderground v.1.15,2013-01-14 15:17:00,
2013-01-14 10:23:00,39.9,34.5,30.20,NW,317,9.0,10.0,81,0.00,,,0.01,Wunderground v.1.15,2013-01-14 15:23:00,
2013-01-14 10:29:00,40.1,34.7,30.20,NW,313,9.0,11.0,81,0.00,,,0.01,Wunderground v.1.15,2013-01-14 15:29:00,
2013-01-14 10:35:00,40.2,34.5,30.20,NW,323,9.0,11.0,80,0.00,,,0.01,Wunderground v.1.15,2013-01-14 15:35:00,
2013-01-14 10:41:00,40.1,34.1,30.20,WNW,285,9.0,14.0,79,0.00,,,0.01,Wunderground v.1.15,2013-01-14 15:41:00,
2013-01-14 10:47:00,40.0,34.3,30.21,NW,313,9.0,14.0,80,0.00,,,0.01,Wunderground v.1.15,2013-01-14 15:47:00,
2013-01-14 10:53:00,39.8,33.8,30.21,NW,318,9.0,11.0,79,0.00,,,0.01,Wunderground v.1.15,2013-01-14 15:53:00,
2013-01-14 10:59:00,39.7,33.4,30.21,WNW,296,11.0,11.0,78,0.00,,,0.01,Wunderground v.1.15,2013-01-14 15:59:00,
2013-01-14 11:05:00,39.6,33.3,30.21,WNW,298,11.0,12.0,78,0.00,,,0.01,Wunderground v.1.15,2013-01-14 16:05:00,
2013-01-14 11:11:00,39.6,33.3,30.22,WNW,296,10.0,14.0,78,0.00,,,0.01,Wunderground v.1.15,2013-01-14 16:11:00,
2013-01-14 11:17:00,40.7,34.4,30.21,NNW,348,10.0,14.0,78,0.00,,,0.01,Wunderground v.1.15,2013-01-14 16:17:00,
2013-01-14 11:23:00,42.2,34.5,30.21,WNW,295,11.0,17.0,74,0.00,,,0.01,Wunderground v.1.15,2013-01-14 16:23:00,
2013-01-14 11:29:00,41.1,33.1,30.22,NW,312,14.0,25.0,73,0.00,,,0.01,Wunderground v.1.15,2013-01-14 16:29:00,
2013-01-14 11:35:00,40.0,32.4,30.22,NW,317,14.0,25.0,74,0.00,,,0.01,Wunderground v.1.15,2013-01-14 16:35:00,
2013-01-14 11:41:00,39.5,32.6,30.23,North,351,12.0,14.0,76,0.00,,,0.01,Wunderground v.1.15,2013-01-14 16:41:00,
2013-01-14 11:47:00,39.0,31.4,30.23,North,350,11.0,14.0,74,0.00,,,0.01,Wunderground v.1.15,2013-01-14 16:47:00,
2013-01-14 11:53:00,38.7,31.5,30.23,WNW,302,12.0,12.0,75,0.00,,,0.01,Wunderground v.1.15,2013-01-14 16:53:00,
2013-01-14 11:59:00,38.6,31.4,30.23,WNW,296,11.0,11.0,75,0.00,,,0.01,Wunderground v.1.15,2013-01-14 16:59:00,
2013-01-14 12:05:00,38.9,31.0,30.23,West,269,11.0,19.0,73,0.00,,,0.01,Wunderground v.1.15,2013-01-14 17:05:00,
2013-01-14 12:11:00,39.6,31.0,30.23,NNW,330,13.0,16.0,71,0.00,,,0.01,Wunderground v.1.15,2013-01-14 17:11:00,
2013-01-14 12:17:00,39.6,30.3,30.23,NW,304,13.0,16.0,69,0.00,,,0.01,Wunderground v.1.15,2013-01-14 17:17:00,
2013-01-14 12:23:00,39.5,29.8,30.23,NW,311,11.0,15.0,68,0.00,,,0.01,Wunderground v.1.15,2013-01-14 17:23:00,
2013-01-14 12:29:00,39.2,29.5,30.23,NW,321,11.0,11.0,68,0.00,,,0.01,Wunderground v.1.15,2013-01-14 17:29:00,
2013-01-14 12:35:00,39.1,29.8,30.23,NW,313,10.0,12.0,69,0.00,,,0.01,Wunderground v.1.15,2013-01-14 17:35:00,
2013-01-14 12:41:00,39.3,30.0,30.23,WNW,298,11.0,16.0,69,0.00,,,0.01,Wunderground v.1.15,2013-01-14 17:41:00,
2013-01-14 12:47:00,38.9,29.2,30.23,NW,308,13.0,18.0,68,0.00,,,0.01,Wunderground v.1.15,2013-01-14 17:47:00,
2013-01-14 12:53:00,38.7,29.0,30.24,NW,308,12.0,14.0,68,0.00,,,0.01,Wunderground v.1.15,2013-01-14 17:53:00,
2013-01-14 12:59:00,38.6,29.3,30.24,NNW,346,11.0,11.0,69,0.00,,,0.01,Wunderground v.1.15,2013-01-14 17:59:00,
2013-01-14 13:05:00,38.1,28.8,30.24,NNW,327,11.0,16.0,69,0.00,,,0.01,Wunderground v.1.15,2013-01-14 18:05:00,
2013-01-14 13:11:00,37.7,28.8,30.24,NW,317,11.0,14.0,70,0.00,,,0.01,Wunderground v.1.15,2013-01-14 18:11:00,
2013-01-14 13:17:00,37.5,28.9,30.24,NW,319,10.0,14.0,71,0.00,,,0.01,Wunderground v.1.15,2013-01-14 18:17:00,
2013-01-14 13:23:00,37.4,28.9,30.24,NW,313,10.0,16.0,71,0.00,,,0.01,Wunderground v.1.15,2013-01-14 18:23:00,
2013-01-14 13:29:00,37.3,29.1,30.24,NNW,329,11.0,13.0,72,0.00,,,0.01,Wunderground v.1.15,2013-01-14 18:29:00,
2013-01-14 13:35:00,37.3,28.8,30.24,NNW,336,11.0,15.0,71,0.00,,,0.01,Wunderground v.1.15,2013-01-14 18:35:00,
2013-01-14 13:41:00,37.1,28.2,30.25,NW,319,13.0,20.0,70,0.00,,,0.01,Wunderground v.1.15,2013-01-14 18:41:00,
2013-01-14 13:47:00,37.2,29.0,30.25,WNW,303,10.0,20.0,72,0.00,,,0.01,Wunderground v.1.15,2013-01-14 18:47:00,
2013-01-14 13:53:00,37.4,28.9,30.26,NW,308,11.0,16.0,71,0.00,,,0.01,Wunderground v.1.15,2013-01-14 18:53:00,
2013-01-14 13:59:00,37.4,28.9,30.27,NW,322,12.0,15.0,71,0.00,,,0.01,Wunderground v.1.15,2013-01-14 18:59:00,
2013-01-14 14:05:00,36.8,28.6,30.27,NW,321,12.0,15.0,72,0.00,,,0.01,Wunderground v.1.15,2013-01-14 19:05:00,
2013-01-14 14:11:00,36.3,28.5,30.28,WNW,286,10.0,11.0,73,0.00,,,0.01,Wunderground v.1.15,2013-01-14 19:11:00,
2013-01-14 14:17:00,35.9,28.4,30.28,West,278,10.0,12.0,74,0.00,,,0.01,Wunderground v.1.15,2013-01-14 19:17:00,
2013-01-14 14:23:00,35.7,28.2,30.28,NW,311,11.0,11.0,74,0.00,,,0.01,Wunderground v.1.15,2013-01-14 19:23:00,
2013-01-14 14:29:00,35.5,28.4,30.28,West,275,10.0,11.0,75,0.00,,,0.01,Wunderground v.1.15,2013-01-14 19:29:00,
2013-01-14 14:35:00,35.3,27.8,30.28,WNW,294,9.0,18.0,74,0.00,,,0.01,Wunderground v.1.15,2013-01-14 19:35:00,
2013-01-14 14:41:00,35.2,28.1,30.29,NW,305,9.0,9.0,75,0.00,,,0.01,Wunderground v.1.15,2013-01-14 19:41:00,
2013-01-14 14:47:00,35.1,27.6,30.29,NNW,330,7.0,9.0,74,0.00,,,0.01,Wunderground v.1.15,2013-01-14 19:47:00,
2013-01-14 14:53:00,34.9,27.5,30.29,WNW,287,7.0,10.0,74,0.00,,,0.01,Wunderground v.1.15,2013-01-14 19:53:00,
2013-01-14 14:59:00,34.8,27.7,30.29,WNW,299,7.0,7.0,75,0.00,,,0.01,Wunderground v.1.15,2013-01-14 19:59:00,
2013-01-14 15:05:00,34.7,27.3,30.29,NNE,13,7.0,12.0,74,0.00,,,0.01,Wunderground v.1.15,2013-01-14 20:05:00,
2013-01-14 15:11:00,34.6,27.2,30.29,NW,306,7.0,13.0,74,0.00,,,0.01,Wunderground v.1.15,2013-01-14 20:11:00,
2013-01-14 15:17:00,34.6,27.5,30.28,WNW,299,7.0,13.0,75,0.00,,,0.01,Wunderground v.1.15,2013-01-14 20:17:00,
2013-01-14 15:23:00,34.5,27.1,30.29,West,263,9.0,12.0,74,0.00,,,0.01,Wunderground v.1.15,2013-01-14 20:23:00,
2013-01-14 15:29:00,34.4,27.3,30.29,NW,311,9.0,9.0,75,0.00,,,0.01,Wunderground v.1.15,2013-01-14 20:29:00,
2013-01-14 15:35:00,34.4,27.3,30.29,NW,309,8.0,12.0,75,0.00,,,0.01,Wunderground v.1.15,2013-01-14 20:35:00,
2013-01-14 15:41:00,34.4,27.0,30.29,WNW,295,9.0,9.0,74,0.00,,,0.01,Wunderground v.1.15,2013-01-14 20:41:00,
2013-01-14 15:47:00,34.3,27.2,30.28,West,260,7.0,9.0,75,0.00,,,0.01,Wunderground v.1.15,2013-01-14 20:47:00,
2013-01-14 15:53:00,34.3,27.2,30.28,NW,304,6.0,6.0,75,0.00,,,0.01,Wunderground v.1.15,2013-01-14 20:53:00,
2013-01-14 15:59:00,34.2,27.1,30.29,WNW,299,6.0,6.0,75,0.00,,,0.01,Wunderground v.1.15,2013-01-14 20:59:00,
2013-01-14 16:05:00,34.1,27.0,30.28,West,278,6.0,6.0,75,0.00,,,0.01,Wunderground v.1.15,2013-01-14 21:05:00,
2013-01-14 16:11:00,34.0,26.9,30.28,NW,311,6.0,6.0,75,0.00,,,0.01,Wunderground v.1.15,2013-01-14 21:11:00,
2013-01-14 16:17:00,33.9,26.8,30.28,NW,313,5.0,10.0,75,0.00,,,0.01,Wunderground v.1.15,2013-01-14 21:17:00,
2013-01-14 16:23:00,33.9,27.1,30.27,NW,305,5.0,6.0,76,0.00,,,0.01,Wunderground v.1.15,2013-01-14 21:23:00,
2013-01-14 16:29:00,33.8,27.0,30.27,WNW,284,4.0,4.0,76,0.00,,,0.01,Wunderground v.1.15,2013-01-14 21:29:00,
2013-01-14 16:35:00,33.8,27.0,30.28,WNW,302,4.0,6.0,76,0.00,,,0.01,Wunderground v.1.15,2013-01-14 21:35:00,
2013-01-14 16:41:00,33.7,26.9,30.27,WNW,302,5.0,5.0,76,0.00,,,0.01,Wunderground v.1.15,2013-01-14 21:41:00,
2013-01-14 16:47:00,33.6,27.2,30.27,West,280,5.0,6.0,77,0.00,,,0.01,Wunderground v.1.15,2013-01-14 21:47:00,
2013-01-14 16:53:00,33.5,27.1,30.27,WNW,284,6.0,11.0,77,0.00,,,0.01,Wunderground v.1.15,2013-01-14 21:53:00,
2013-01-14 16:59:00,33.5,26.7,30.29,WNW,292,6.0,10.0,76,0.00,,,0.01,Wunderground v.1.15,2013-01-14 21:59:00,
2013-01-14 17:05:00,33.4,27.0,30.30,West,279,6.0,11.0,77,0.00,,,0.01,Wunderground v.1.15,2013-01-14 22:05:00,
2013-01-14 17:11:00,33.4,27.0,30.29,NW,311,6.0,9.0,77,0.00,,,0.01,Wunderground v.1.15,2013-01-14 22:11:00,
2013-01-14 17:17:00,33.3,26.9,30.29,NW,315,5.0,9.0,77,0.00,,,0.01,Wunderground v.1.15,2013-01-14 22:17:00,
2013-01-14 17:23:00,33.3,26.9,30.31,WNW,286,4.0,5.0,77,0.00,,,0.01,Wunderground v.1.15,2013-01-14 22:23:00,
2013-01-14 17:29:00,33.3,26.9,30.30,WNW,302,5.0,7.0,77,0.00,,,0.01,Wunderground v.1.15,2013-01-14 22:29:00,
2013-01-14 17:35:00,33.3,26.9,30.31,West,275,8.0,14.0,77,0.00,,,0.01,Wunderground v.1.15,2013-01-14 22:35:00,
2013-01-14 17:41:00,33.2,26.8,30.31,NW,304,7.0,7.0,77,0.00,,,0.01,Wunderground v.1.15,2013-01-14 22:41:00,
2013-01-14 17:47:00,33.2,26.8,30.31,WNW,295,6.0,10.0,77,0.00,,,0.01,Wunderground v.1.15,2013-01-14 22:47:00,
2013-01-14 17:53:00,33.3,26.5,30.32,WNW,298,8.0,9.0,76,0.00,,,0.01,Wunderground v.1.15,2013-01-14 22:53:00,
2013-01-14 17:59:00,33.3,26.5,30.34,West,269,8.0,10.0,76,0.00,,,0.01,Wunderground v.1.15,2013-01-14 22:59:00,
2013-01-14 18:05:00,33.3,26.5,30.35,West,267,7.0,10.0,76,0.00,,,0.01,Wunderground v.1.15,2013-01-14 23:05:00,
2013-01-14 18:11:00,33.4,26.6,30.35,NW,324,7.0,9.0,76,0.00,,,0.01,Wunderground v.1.15,2013-01-14 23:11:00,
2013-01-14 18:17:00,33.3,26.5,30.34,NW,311,8.0,9.0,76,0.00,,,0.01,Wunderground v.1.15,2013-01-14 23:17:00,
2013-01-14 18:23:00,33.3,26.5,30.34,West,263,9.0,11.0,76,0.00,,,0.01,Wunderground v.1.15,2013-01-14 23:23:00,
2013-01-14 18:29:00,33.2,26.5,30.33,NW,309,9.0,9.0,76,0.00,,,0.01,Wunderground v.1.15,2013-01-14 23:29:00,
2013-01-14 18:35:00,33.1,26.4,30.32,WNW,298,7.0,9.0,76,0.00,,,0.01,Wunderground v.1.15,2013-01-14 23:35:00,
2013-01-14 18:41:00,33.0,26.3,30.34,WNW,288,6.0,10.0,76,0.00,,,0.01,Wunderground v.1.15,2013-01-14 23:41:00,
2013-01-14 18:47:00,32.9,25.5,30.32,WNW,291,7.0,10.0,74,0.00,,,0.01,Wunderground v.1.15,2013-01-14 23:47:00,
2013-01-14 18:55:00,32.9,25.8,30.33,WNW,287,5.0,7.0,75,0.00,,,0.01,Wunderground v.1.15,2013-01-14 23:55:00,
2013-01-14 19:01:00,32.8,25.4,30.34,WNW,299,6.0,7.0,74,0.00,,,0.01,Wunderground v.1.15,2013-01-15 00:01:00,
2013-01-14 19:07:00,32.8,25.4,30.35,West,279,5.0,7.0,74,0.00,,,0.01,Wunderground v.1.15,2013-01-15 00:07:00,
2013-01-14 19:13:00,32.7,25.6,30.35,WNW,284,3.0,5.0,75,0.00,,,0.01,Wunderground v.1.15,2013-01-15 00:13:00,
2013-01-14 19:19:00,32.6,25.6,30.35,WNW,298,4.0,6.0,75,0.00,,,0.01,Wunderground v.1.15,2013-01-15 00:19:00,
2013-01-14 19:25:00,32.6,25.6,30.35,WNW,284,5.0,9.0,75,0.00,,,0.01,Wunderground v.1.15,2013-01-15 00:25:00,
2013-01-14 19:31:00,32.6,25.6,30.35,NW,306,5.0,6.0,75,0.00,,,0.01,Wunderground v.1.15,2013-01-15 00:31:00,
2013-01-14 19:37:00,32.5,25.1,30.36,West,263,5.0,7.0,74,0.00,,,0.01,Wunderground v.1.15,2013-01-15 00:37:00,
2013-01-14 19:43:00,32.6,24.9,30.35,WNW,289,5.0,6.0,73,0.00,,,0.01,Wunderground v.1.15,2013-01-15 00:43:00,
2013-01-14 19:49:00,32.6,24.9,30.36,WNW,290,5.0,10.0,73,0.00,,,0.01,Wunderground v.1.15,2013-01-15 00:49:00,
2013-01-14 19:55:00,32.6,24.6,30.36,WNW,295,7.0,15.0,72,0.00,,,0.01,Wunderground v.1.15,2013-01-15 00:55:00,
2013-01-14 20:01:00,32.6,24.9,30.36,WNW,294,7.0,8.0,73,0.00,,,0.01,Wunderground v.1.15,2013-01-15 01:01:00,
2013-01-14 20:07:00,32.5,24.8,30.36,WNW,296,8.0,10.0,73,0.00,,,0.01,Wunderground v.1.15,2013-01-15 01:07:00,
2013-01-14 20:13:00,32.4,24.7,30.35,WNW,297,7.0,8.0,73,0.00,,,0.01,Wunderground v.1.15,2013-01-15 01:13:00,
2013-01-14 20:19:00,32.4,24.7,30.35,West,281,6.0,6.0,73,0.00,,,0.01,Wunderground v.1.15,2013-01-15 01:19:00,
2013-01-14 20:25:00,32.3,24.9,30.34,NW,306,6.0,9.0,74,0.00,,,0.01,Wunderground v.1.15,2013-01-15 01:25:00,
2013-01-14 20:31:00,32.2,24.8,30.33,West,262,6.0,7.0,74,0.00,,,0.01,Wunderground v.1.15,2013-01-15 01:31:00,
2013-01-14 20:37:00,32.1,24.7,30.33,West,281,5.0,7.0,74,0.00,,,0.01,Wunderground v.1.15,2013-01-15 01:37:00,
2013-01-14 20:43:00,32.0,24.6,30.33,WNW,284,5.0,5.0,74,0.00,,,0.01,Wunderground v.1.15,2013-01-15 01:43:00,
2013-01-14 20:49:00,31.9,24.6,30.33,WNW,287,5.0,6.0,74,0.00,,,0.01,Wunderground v.1.15,2013-01-15 01:49:00,
2013-01-14 20:55:00,31.9,24.2,30.32,West,279,6.0,6.0,73,0.00,,,0.01,Wunderground v.1.15,2013-01-15 01:55:00,
2013-01-14 21:01:00,31.9,24.2,30.33,WNW,283,6.0,6.0,73,0.00,,,0.01,Wunderground v.1.15,2013-01-15 02:01:00,
2013-01-14 21:07:00,31.9,24.2,30.32,WNW,290,5.0,6.0,73,0.00,,,0.01,Wunderground v.1.15,2013-01-15 02:07:00,
2013-01-14 21:13:00,31.8,24.1,30.32,NW,304,4.0,5.0,73,0.00,,,0.01,Wunderground v.1.15,2013-01-15 02:13:00,
2013-01-14 21:19:00,31.7,24.0,30.32,West,276,4.0,7.0,73,0.00,,,0.01,Wunderground v.1.15,2013-01-15 02:19:00,
2013-01-14 21:25:00,31.7,24.0,30.32,West,279,4.0,7.0,73,0.00,,,0.01,Wunderground v.1.15,2013-01-15 02:25:00,
2013-01-14 21:31:00,31.7,24.4,30.32,WNW,296,3.0,5.0,74,0.00,,,0.01,Wunderground v.1.15,2013-01-15 02:31:00,
2013-01-14 21:37:00,31.7,24.0,30.32,West,281,4.0,6.0,73,0.00,,,0.01,Wunderground v.1.15,2013-01-15 02:37:00,
2013-01-14 21:43:00,31.7,24.0,30.32,West,266,5.0,5.0,73,0.00,,,0.01,Wunderground v.1.15,2013-01-15 02:43:00,
2013-01-14 21:49:00,31.6,23.9,30.31,West,274,4.0,4.0,73,0.00,,,0.01,Wunderground v.1.15,2013-01-15 02:49:00,
2013-01-14 21:55:00,31.6,23.9,30.32,West,275,3.0,4.0,73,0.00,,,0.01,Wunderground v.1.15,2013-01-15 02:55:00,
2013-01-14 22:01:00,31.6,24.3,30.33,West,277,3.0,5.0,74,0.00,,,0.01,Wunderground v.1.15,2013-01-15 03:01:00,
2013-01-14 22:07:00,31.5,24.2,30.35,West,275,4.0,6.0,74,0.00,,,0.01,Wunderground v.1.15,2013-01-15 03:07:00,
2013-01-14 22:13:00,31.5,24.2,30.35,West,279,3.0,4.0,74,0.00,,,0.01,Wunderground v.1.15,2013-01-15 03:13:00,
2013-01-14 22:19:00,31.5,24.2,30.35,NW,324,3.0,4.0,74,0.00,,,0.01,Wunderground v.1.15,2013-01-15 03:19:00,
2013-01-14 22:25:00,31.6,24.3,30.37,WNW,298,3.0,4.0,74,0.00,,,0.01,Wunderground v.1.15,2013-01-15 03:25:00,
2013-01-14 22:31:00,31.6,24.3,30.38,West,259,5.0,5.0,74,0.00,,,0.01,Wunderground v.1.15,2013-01-15 03:31:00,
2013-01-14 22:37:00,31.6,24.3,30.36,West,268,6.0,10.0,74,0.00,,,0.01,Wunderground v.1.15,2013-01-15 03:37:00,
2013-01-14 22:43:00,31.6,24.3,30.36,WNW,288,4.0,5.0,74,0.00,,,0.01,Wunderground v.1.15,2013-01-15 03:43:00,
2013-01-14 22:49:00,31.5,24.2,30.35,NW,311,5.0,5.0,74,0.00,,,0.01,Wunderground v.1.15,2013-01-15 03:49:00,
2013-01-14 22:55:00,31.5,23.8,30.35,WNW,284,5.0,8.0,73,0.00,,,0.01,Wunderground v.1.15,2013-01-15 03:55:00,
2013-01-14 23:01:00,31.4,24.1,30.34,WNW,292,5.0,5.0,74,0.00,,,0.01,Wunderground v.1.15,2013-01-15 04:01:00,
2013-01-14 23:07:00,31.4,24.1,30.36,WNW,297,4.0,6.0,74,0.00,,,0.01,Wunderground v.1.15,2013-01-15 04:07:00,
2013-01-14 23:13:00,31.4,24.1,30.35,WNW,286,3.0,5.0,74,0.00,,,0.01,Wunderground v.1.15,2013-01-15 04:13:00,
2013-01-14 23:19:00,31.4,24.1,30.35,WNW,291,3.0,3.0,74,0.00,,,0.01,Wunderground v.1.15,2013-01-15 04:19:00,
2013-01-14 23:25:00,31.3,24.0,30.36,West,272,3.0,4.0,74,0.00,,,0.01,Wunderground v.1.15,2013-01-15 04:25:00,
2013-01-14 23:31:00,31.3,24.0,30.34,WNW,294,4.0,4.0,74,0.00,,,0.01,Wunderground v.1.15,2013-01-15 04:31:00,
2013-01-14 23:37:00,31.3,24.0,30.35,WNW,287,3.0,4.0,74,0.00,,,0.01,Wunderground v.1.15,2013-01-15 04:37:00,
2013-01-14 23:43:00,31.2,23.9,30.34,WNW,294,2.0,4.0,74,0.00,,,0.01,Wunderground v.1.15,2013-01-15 04:43:00,
2013-01-14 23:49:00,31.2,23.9,30.34,West,281,3.0,4.0,74,0.00,,,0.01,Wunderground v.1.15,2013-01-15 04:49:00,
2013-01-14 23:55:00,31.2,23.9,30.33,West,277,3.0,4.0,74,0.00,,,0.01,Wunderground v.1.15,2013-01-15 04:55:00,